* Astronomy

Members Login
Username 
 
Password 
    Remember Me  
Post Info TOPIC: Asteroid 2011 WL69


L

Posts: 131433
Date:
Asteroid 2011 WL69
Permalink  
 


Orbital elements:
2011 WL69                                                Earth MOID = 0.0910 AU
Epoch 2011 Aug. 27.0 TT = JDT 2455800.5                 MPC
M 339.21558              (2000.0)            P               Q
n   0.21956997     Peri.   23.95688     +0.75767109     -0.65041783
a   2.7211601      Node    16.96165     +0.56506283     +0.61254897
e   0.6071409      Incl.   10.62103     +0.32655554     +0.44915521
P   4.49           H   19.4           G   0.15           U   9

MPEC 2011 - W77



__________________
Page 1 of 1  sorted by
 
Quick Reply

Please log in to post quick replies.



Create your own FREE Forum
Report Abuse
Powered by ActiveBoard